Tracking 18673 objects as of 26-June-2017
HD Live streaming from Space Station
objects crossing your sky now

UNHA 3 R/B

Track UNHA 3 R/B now!
10-day predictions


NORAD ID: 39027
Int'l Code: 2012-072B
Perigee: 488.8 km
Apogee: 569.5 km
Inclination: 97.3 °
Period: 95.1 minutes
Semi major axis: 6900 km
RCS: 1.274 m2 (large)
Launch date: December 12, 2012
Source: North Korea (NKOR)
Launch site: Yunsong, DPRK (YUN)

Note: This is a ROCKET BODY
Your satellite tracking list
Your tracking list is empty





NASA's NSSDC Master Catalog

Two Line Element Set (TLE):
1 39027U 12072B   17177.24996855 +.00000406 +00000-0 +24534-4 0  9996
2 39027 097.2595 181.9291 0058509 201.5800 158.2966 15.14663662218372
Source of the keplerian elements: AFSPC